EXS9KR EGCC-LGTS

Flight info

Callsign EXS9KR
Flight time N/A
Altitude 35000
Route DESIG L603 DOLAS DCT NAVPI DCT NOLRU DCT DOJOH DCT DODEN DCT NEGIX DCT DINKU DCT BESNI DCT LATLO DCT OBEDI DCT KLAGY DCT TEBLI DCT NORPI DCT KEB DCT PODOB DCT MEDUX UM867 KOGAT DCT BUREK DCT PEP DCT TALAS UN130 ALIKO
Aircraft A321/M-SDE2E3FGHIJ3J4J5J7M3P2RWXY/LB1D1

Departure

Time 2026-05-05 10:12
Airport Manchester Airport (EGCC)

Arrival

Time N/A
Airport Thessaloniki Macedonia International Airport (LGTS)
Time Latitude Longitude Altitude Speed Heading
2026-05-05 09:42 53.36836 -2.28882 255 ft 0 kts 135°
2026-05-05 09:58 53.36839 -2.28889 255 ft 3 kts 135°
2026-05-05 09:58 53.36854 -2.28913 255 ft 2 kts 134°
2026-05-05 09:58 53.36867 -2.28931 255 ft 3 kts 190°
2026-05-05 09:59 53.36882 -2.28914 255 ft 3 kts 225°
2026-05-05 09:59 53.36876 -2.28924 255 ft 3 kts 225°
2026-05-05 09:59 53.36871 -2.28933 255 ft 0 kts 225°
2026-05-05 10:02 53.36870 -2.28934 255 ft 0 kts 225°
2026-05-05 10:02 53.36858 -2.28954 255 ft 5 kts 225°
2026-05-05 10:02 53.36818 -2.29013 255 ft 9 kts 211°
2026-05-05 10:02 53.36771 -2.29041 255 ft 5 kts 195°
2026-05-05 10:03 53.36749 -2.29034 255 ft 2 kts 152°
2026-05-05 10:03 53.36740 -2.29024 255 ft 3 kts 144°
2026-05-05 10:03 53.36710 -2.28979 255 ft 9 kts 135°
2026-05-05 10:03 53.36647 -2.28904 255 ft 12 kts 158°
2026-05-05 10:04 53.36596 -2.28830 255 ft 8 kts 121°
2026-05-05 10:04 53.36570 -2.28749 255 ft 9 kts 123°
2026-05-05 10:04 53.36523 -2.28663 255 ft 11 kts 134°
2026-05-05 10:04 53.36484 -2.28598 255 ft 12 kts 135°
2026-05-05 10:05 53.36411 -2.28492 255 ft 11 kts 161°
2026-05-05 10:05 53.36326 -2.28440 255 ft 13 kts 139°
2026-05-05 10:05 53.36273 -2.28350 255 ft 9 kts 135°
2026-05-05 10:05 53.36237 -2.28291 255 ft 5 kts 135°
2026-05-05 10:06 53.36221 -2.28265 255 ft 6 kts 136°
2026-05-05 10:06 53.36178 -2.28194 255 ft 12 kts 134°
2026-05-05 10:06 53.36108 -2.28077 255 ft 16 kts 136°
2026-05-05 10:06 53.36033 -2.27963 255 ft 13 kts 138°
2026-05-05 10:07 53.35967 -2.27871 255 ft 12 kts 148°
2026-05-05 10:07 53.35893 -2.27849 255 ft 10 kts 182°
2026-05-05 10:07 53.35813 -2.27863 251 ft 13 kts 186°
2026-05-05 10:07 53.35713 -2.27882 245 ft 16 kts 186°
2026-05-05 10:08 53.35615 -2.27926 240 ft 15 kts 220°
2026-05-05 10:08 53.35541 -2.28068 238 ft 18 kts 225°
2026-05-05 10:08 53.35435 -2.28157 238 ft 16 kts 191°
2026-05-05 10:08 53.35331 -2.28191 234 ft 16 kts 200°
2026-05-05 10:09 53.35238 -2.28295 232 ft 16 kts 223°
2026-05-05 10:09 53.35164 -2.28440 227 ft 18 kts 231°
2026-05-05 10:09 53.35089 -2.28596 229 ft 16 kts 231°
2026-05-05 10:09 53.35020 -2.28732 227 ft 16 kts 226°
2026-05-05 10:10 53.34944 -2.28866 226 ft 16 kts 226°
2026-05-05 10:10 53.34863 -2.29009 224 ft 19 kts 226°
2026-05-05 10:10 53.34774 -2.29180 215 ft 20 kts 232°
2026-05-05 10:10 53.34675 -2.29332 211 ft 17 kts 202°
2026-05-05 10:11 53.34571 -2.29323 213 ft 14 kts 156°
2026-05-05 10:11 53.34534 -2.29240 222 ft 6 kts 74°
2026-05-05 10:11 53.34550 -2.29202 214 ft 0 kts 51°
2026-05-05 10:11 53.34559 -2.29184 219 ft 10 kts 51°
2026-05-05 10:12 53.34752 -2.28783 224 ft 79 kts 50°
2026-05-05 10:12 53.35229 -2.27794 238 ft 136 kts 51°
2026-05-05 10:12 53.35915 -2.26384 411 ft 165 kts 48°
2026-05-05 10:12 53.36604 -2.24957 1137 ft 159 kts 48°
2026-05-05 10:13 53.37293 -2.23513 1817 ft 159 kts 49°
2026-05-05 10:13 53.38001 -2.22023 2218 ft 171 kts 48°
2026-05-05 10:13 53.38792 -2.20356 2406 ft 194 kts 49°
2026-05-05 10:13 53.39675 -2.18491 2567 ft 215 kts 49°
2026-05-05 10:14 53.40655 -2.16409 2721 ft 241 kts 50°
2026-05-05 10:14 53.41728 -2.14122 3243 ft 254 kts 50°
2026-05-05 10:14 53.42830 -2.11770 4024 ft 257 kts 50°
2026-05-05 10:14 53.43935 -2.09409 4828 ft 259 kts 50°
2026-05-05 10:15 53.45057 -2.07017 5563 ft 263 kts 50°
2026-05-05 10:15 53.46199 -2.04585 6233 ft 269 kts 51°
2026-05-05 10:15 53.47379 -2.02069 6876 ft 276 kts 51°
2026-05-05 10:15 53.48578 -1.99509 7561 ft 281 kts 50°
2026-05-05 10:16 53.49800 -1.96915 8251 ft 285 kts 50°
2026-05-05 10:16 53.51016 -1.94261 8939 ft 289 kts 56°
2026-05-05 10:16 53.51868 -1.91176 9601 ft 295 kts 73°
2026-05-05 10:16 53.52161 -1.87754 10214 ft 300 kts 90°
2026-05-05 10:17 53.51860 -1.84269 10787 ft 305 kts 105°
2026-05-05 10:17 53.51250 -1.80715 10922 ft 327 kts 107°
2026-05-05 10:17 53.50593 -1.76989 11050 ft 347 kts 107°
2026-05-05 10:17 53.49888 -1.73024 11396 ft 358 kts 107°
2026-05-05 10:18 53.49164 -1.68976 11950 ft 363 kts 107°
2026-05-05 10:18 53.48433 -1.64902 12528 ft 367 kts 107°
2026-05-05 10:18 53.47697 -1.60777 13126 ft 371 kts 107°
2026-05-05 10:18 53.46952 -1.56605 13710 ft 375 kts 107°
2026-05-05 10:19 53.46197 -1.52389 14243 ft 379 kts 107°
2026-05-05 10:19 53.45438 -1.48141 14767 ft 382 kts 107°
2026-05-05 10:19 53.44671 -1.43839 15292 ft 386 kts 107°
2026-05-05 10:19 53.43896 -1.39515 15807 ft 389 kts 108°
2026-05-05 10:20 53.43107 -1.35152 16323 ft 393 kts 108°
2026-05-05 10:20 53.42306 -1.30746 16831 ft 396 kts 108°
2026-05-05 10:20 53.41499 -1.26316 17344 ft 399 kts 108°
2026-05-05 10:20 53.40688 -1.21847 17846 ft 402 kts 108°
2026-05-05 10:21 53.39871 -1.17335 18328 ft 406 kts 109°
2026-05-05 10:21 53.39045 -1.12793 18762 ft 409 kts 109°
2026-05-05 10:21 53.38213 -1.08233 19214 ft 411 kts 109°
2026-05-05 10:21 53.37382 -1.03714 19648 ft 413 kts 109°
2026-05-05 10:22 53.36534 -0.99107 20070 ft 415 kts 109°
2026-05-05 10:22 53.35680 -0.94476 20473 ft 418 kts 109°
2026-05-05 10:22 53.34820 -0.89816 20938 ft 420 kts 109°
2026-05-05 10:22 53.33954 -0.85145 21355 ft 422 kts 109°
2026-05-05 10:23 53.33081 -0.80444 21790 ft 424 kts 109°
2026-05-05 10:23 53.32201 -0.75729 22222 ft 426 kts 109°
2026-05-05 10:23 53.31315 -0.70985 22638 ft 428 kts 109°
2026-05-05 10:23 53.30427 -0.66223 23066 ft 430 kts 109°
2026-05-05 10:24 53.29534 -0.61450 23476 ft 432 kts 110°
2026-05-05 10:24 53.28632 -0.56650 23832 ft 434 kts 110°
2026-05-05 10:24 53.27719 -0.51830 24186 ft 435 kts 110°
2026-05-05 10:24 53.26803 -0.47001 24538 ft 437 kts 109°
2026-05-05 10:25 53.25883 -0.42160 24903 ft 438 kts 109°
2026-05-05 10:25 53.24960 -0.37308 25250 ft 439 kts 109°
2026-05-05 10:25 53.24035 -0.32451 25614 ft 440 kts 109°
2026-05-05 10:25 53.23106 -0.27582 25969 ft 441 kts 109°
2026-05-05 10:26 53.22175 -0.22703 26318 ft 442 kts 109°
2026-05-05 10:26 53.21238 -0.17817 26663 ft 443 kts 109°
2026-05-05 10:26 53.20295 -0.12919 27011 ft 444 kts 109°
2026-05-05 10:26 53.19359 -0.08076 27354 ft 445 kts 109°
2026-05-05 10:27 53.18397 -0.03097 27666 ft 446 kts 109°
2026-05-05 10:27 53.17454 0.01777 27959 ft 448 kts 109°
2026-05-05 10:27 53.16496 0.06723 28251 ft 450 kts 109°
2026-05-05 10:27 53.15529 0.11692 28550 ft 452 kts 109°
2026-05-05 10:28 53.14555 0.16668 28844 ft 453 kts 109°
2026-05-05 10:28 53.13574 0.21671 29131 ft 454 kts 109°
2026-05-05 10:28 53.12588 0.26683 29417 ft 456 kts 109°
2026-05-05 10:28 53.11601 0.31694 29709 ft 457 kts 109°
2026-05-05 10:29 53.10604 0.36730 29991 ft 458 kts 109°
2026-05-05 10:29 53.09603 0.41764 30317 ft 457 kts 109°
2026-05-05 10:29 53.08605 0.46773 30673 ft 455 kts 109°
2026-05-05 10:29 53.07611 0.51766 31017 ft 454 kts 109°
2026-05-05 10:30 53.06618 0.56750 31325 ft 454 kts 109°
2026-05-05 10:30 53.05624 0.61725 31645 ft 453 kts 109°
2026-05-05 10:30 53.04630 0.66687 31984 ft 452 kts 109°
2026-05-05 10:30 53.03638 0.71628 32327 ft 450 kts 109°
2026-05-05 10:31 53.02660 0.76491 32663 ft 449 kts 109°
2026-05-05 10:31 53.01671 0.81395 33011 ft 447 kts 109°
2026-05-05 10:31 53.00681 0.86291 33359 ft 446 kts 109°
2026-05-05 10:31 52.99690 0.91162 33657 ft 446 kts 109°
2026-05-05 10:32 52.98698 0.96030 33934 ft 445 kts 109°
2026-05-05 10:32 52.97701 1.00894 34197 ft 445 kts 110°
2026-05-05 10:32 52.96666 1.05733 34380 ft 446 kts 111°
2026-05-05 10:32 52.95584 1.10560 34533 ft 447 kts 112°
2026-05-05 10:33 52.94473 1.15378 34706 ft 448 kts 112°
2026-05-05 10:33 52.93351 1.20200 34895 ft 449 kts 112°
2026-05-05 10:33 52.91119 1.29855 35005 ft 447 kts 112°
2026-05-05 10:34 52.88921 1.39479 35002 ft 446 kts 112°
2026-05-05 10:34 52.86724 1.49089 35002 ft 446 kts 112°
2026-05-05 10:35 52.84517 1.58710 35000 ft 448 kts 112°
2026-05-05 10:35 52.82287 1.68345 35002 ft 449 kts 112°
2026-05-05 10:36 52.80062 1.77909 35002 ft 449 kts 112°
2026-05-05 10:36 52.77815 1.87528 35002 ft 449 kts 112°
2026-05-05 10:37 52.75560 1.97134 34998 ft 449 kts 112°
2026-05-05 10:37 52.73299 2.06744 34987 ft 449 kts 114°
2026-05-05 10:38 52.71026 2.16373 34983 ft 451 kts 114°
2026-05-05 10:38 52.68736 2.25995 34985 ft 451 kts 114°
2026-05-05 10:39 52.66434 2.35622 34986 ft 452 kts 114°
2026-05-05 10:39 52.64122 2.45248 34990 ft 452 kts 114°
2026-05-05 10:40 52.61802 2.54871 34986 ft 453 kts 114°
2026-05-05 10:40 52.59474 2.64513 34983 ft 453 kts 114°
2026-05-05 10:41 52.57149 2.74083 34988 ft 454 kts 114°
2026-05-05 10:41 52.54785 2.83710 34990 ft 454 kts 115°
2026-05-05 10:42 52.50835 2.97832 34995 ft 453 kts 119°
2026-05-05 10:43 52.48042 3.07100 34984 ft 453 kts 119°
2026-05-05 10:43 52.45284 3.16395 34996 ft 453 kts 119°
2026-05-05 10:44 52.42559 3.25719 35003 ft 453 kts 118°
2026-05-05 10:44 52.39834 3.35013 35004 ft 453 kts 119°
2026-05-05 10:45 52.37092 3.44290 34998 ft 452 kts 119°
2026-05-05 10:45 52.34345 3.53549 34986 ft 452 kts 119°
2026-05-05 10:46 52.31584 3.62797 34970 ft 453 kts 119°
2026-05-05 10:46 52.28814 3.72032 34970 ft 453 kts 119°
2026-05-05 10:47 52.26044 3.81253 34964 ft 452 kts 119°
2026-05-05 10:47 52.23288 3.90416 34962 ft 452 kts 119°
2026-05-05 10:48 52.20510 3.99620 34922 ft 453 kts 120°
2026-05-05 10:48 52.17715 4.08828 34929 ft 454 kts 120°
2026-05-05 10:49 52.14899 4.18053 34926 ft 455 kts 120°
2026-05-05 10:49 52.12065 4.27279 34932 ft 456 kts 120°
2026-05-05 10:50 52.09231 4.36510 34922 ft 456 kts 120°
2026-05-05 10:50 52.06386 4.45749 34926 ft 457 kts 120°
2026-05-05 10:51 52.03530 4.54964 34933 ft 457 kts 120°
2026-05-05 10:51 52.00664 4.64176 34944 ft 457 kts 120°
2026-05-05 10:52 51.97796 4.73378 34938 ft 457 kts 120°
2026-05-05 10:52 51.94924 4.82560 34937 ft 457 kts 120°
2026-05-05 10:53 51.92044 4.91731 34940 ft 455 kts 121°
2026-05-05 10:53 51.89191 5.00781 34957 ft 453 kts 122°
2026-05-05 10:54 51.86325 5.09830 34960 ft 451 kts 122°
2026-05-05 10:54 51.83454 5.18838 34960 ft 450 kts 122°
2026-05-05 10:55 51.80584 5.27823 34958 ft 449 kts 122°
2026-05-05 10:55 51.77721 5.36786 34939 ft 449 kts 122°
2026-05-05 10:56 51.74844 5.45742 34935 ft 449 kts 123°
2026-05-05 10:56 51.71952 5.54698 34936 ft 450 kts 123°
2026-05-05 10:57 51.69545 5.62135 34937 ft 450 kts 123°
2026-05-05 10:57 51.66643 5.71066 34940 ft 450 kts 123°
2026-05-05 10:58 51.63265 5.81416 34943 ft 449 kts 123°
2026-05-05 10:58 51.60831 5.88868 34944 ft 449 kts 123°
2026-05-05 10:59 51.57924 5.97749 34921 ft 449 kts 123°
2026-05-05 10:59 51.55028 6.06555 34921 ft 448 kts 123°
2026-05-05 11:00 51.52100 6.15403 34920 ft 448 kts 123°
2026-05-05 11:00 51.49003 6.24044 34918 ft 443 kts 130°
2026-05-05 11:01 51.45530 6.32239 34900 ft 444 kts 130°
2026-05-05 11:01 51.42058 6.40436 34891 ft 445 kts 130°
2026-05-05 11:02 51.38573 6.48636 34887 ft 445 kts 130°
2026-05-05 11:02 51.35084 6.56827 34883 ft 445 kts 130°
2026-05-05 11:03 51.31594 6.64990 34891 ft 444 kts 130°
2026-05-05 11:03 51.28126 6.73080 34878 ft 444 kts 130°
2026-05-05 11:04 51.24625 6.81215 34872 ft 445 kts 130°
2026-05-05 11:04 51.21115 6.89342 34875 ft 445 kts 130°
2026-05-05 11:05 51.17599 6.97477 34873 ft 446 kts 130°
2026-05-05 11:05 51.14076 7.05598 34876 ft 446 kts 130°
2026-05-05 11:06 51.10539 7.13697 34857 ft 445 kts 130°
2026-05-05 11:06 51.07011 7.21780 34892 ft 444 kts 130°
2026-05-05 11:07 51.03490 7.29818 34899 ft 443 kts 130°
2026-05-05 11:07 50.99965 7.37829 34901 ft 442 kts 130°
2026-05-05 11:08 50.96435 7.45813 34897 ft 442 kts 131°
2026-05-05 11:08 50.92905 7.53783 34889 ft 441 kts 130°
2026-05-05 11:09 50.89384 7.61745 34861 ft 441 kts 131°
2026-05-05 11:09 50.85847 7.69688 34866 ft 442 kts 131°
2026-05-05 11:10 50.81968 7.77101 34869 ft 432 kts 143°
2026-05-05 11:10 50.77581 7.83609 34875 ft 433 kts 142°
2026-05-05 11:11 50.73190 7.90130 34884 ft 433 kts 142°
2026-05-05 11:11 50.68807 7.96646 34869 ft 433 kts 142°
2026-05-05 11:12 50.64446 8.03095 34870 ft 433 kts 143°
2026-05-05 11:12 50.60084 8.09662 34840 ft 437 kts 137°
2026-05-05 11:13 50.56251 8.17152 34847 ft 439 kts 134°
2026-05-05 11:13 50.52440 8.24652 34852 ft 439 kts 135°
2026-05-05 11:14 50.48627 8.32132 34856 ft 439 kts 135°
2026-05-05 11:14 50.44807 8.39593 34837 ft 439 kts 135°
2026-05-05 11:15 50.40976 8.47051 34836 ft 439 kts 135°
2026-05-05 11:15 50.37124 8.54475 34841 ft 438 kts 136°
2026-05-05 11:16 50.33056 8.61508 34849 ft 435 kts 140°
2026-05-05 11:16 50.28851 8.68315 34865 ft 434 kts 140°
2026-05-05 11:17 50.24680 8.75130 34868 ft 433 kts 139°
2026-05-05 11:17 50.20561 8.81998 34869 ft 433 kts 139°
2026-05-05 11:18 50.16480 8.88816 34867 ft 433 kts 139°
2026-05-05 11:18 50.12362 8.95659 34861 ft 432 kts 139°
2026-05-05 11:19 50.08234 9.02469 34858 ft 432 kts 139°
2026-05-05 11:19 50.04105 9.09257 34856 ft 432 kts 139°
2026-05-05 11:20 49.99978 9.16033 34844 ft 431 kts 139°
2026-05-05 11:20 49.95853 9.22788 34845 ft 431 kts 139°
2026-05-05 11:21 49.91723 9.29537 34849 ft 431 kts 139°
2026-05-05 11:21 49.87595 9.36264 34849 ft 431 kts 139°
2026-05-05 11:22 49.83460 9.42983 34848 ft 431 kts 139°
2026-05-05 11:22 49.79323 9.49689 34850 ft 430 kts 139°
2026-05-05 11:23 49.75188 9.56371 34839 ft 430 kts 139°
2026-05-05 11:23 49.71050 9.63040 34836 ft 430 kts 139°
2026-05-05 11:24 49.66933 9.69661 34840 ft 430 kts 139°
2026-05-05 11:24 49.62789 9.76312 34845 ft 430 kts 139°
2026-05-05 11:25 49.58638 9.82956 34846 ft 430 kts 139°
2026-05-05 11:25 49.54481 9.89582 34847 ft 430 kts 139°
2026-05-05 11:26 49.50323 9.96197 34842 ft 429 kts 139°
2026-05-05 11:26 49.46169 10.02797 34859 ft 429 kts 139°
2026-05-05 11:27 49.42015 10.09381 34863 ft 429 kts 139°
2026-05-05 11:27 49.37857 10.15943 34861 ft 429 kts 139°
2026-05-05 11:28 49.33694 10.22487 34863 ft 428 kts 139°
2026-05-05 11:28 49.29530 10.29024 34842 ft 428 kts 139°
2026-05-05 11:29 49.25367 10.35555 34847 ft 428 kts 139°
2026-05-05 11:29 49.21184 10.42032 34862 ft 427 kts 140°
2026-05-05 11:30 49.16926 10.48352 34861 ft 426 kts 141°
2026-05-05 11:30 49.12652 10.54618 34867 ft 426 kts 141°
2026-05-05 11:31 49.08415 10.60859 34868 ft 426 kts 141°
2026-05-05 11:31 49.04160 10.67148 34840 ft 426 kts 140°
2026-05-05 11:32 48.99893 10.73431 34837 ft 428 kts 141°
2026-05-05 11:32 48.95614 10.79725 34831 ft 428 kts 141°
2026-05-05 11:33 48.91321 10.86013 34825 ft 428 kts 141°
2026-05-05 11:33 48.87022 10.92283 34813 ft 428 kts 141°
2026-05-05 11:34 48.82724 10.98549 34808 ft 428 kts 141°
2026-05-05 11:34 48.78421 11.04818 34786 ft 429 kts 141°
2026-05-05 11:35 48.74112 11.11076 34786 ft 429 kts 141°
2026-05-05 11:35 48.69790 11.17329 34793 ft 429 kts 141°
2026-05-05 11:36 48.65470 11.23551 34798 ft 429 kts 141°
2026-05-05 11:36 48.61260 11.29973 34806 ft 431 kts 137°
2026-05-05 11:37 48.57271 11.36750 34788 ft 432 kts 135°
2026-05-05 11:37 48.53325 11.43531 34790 ft 433 kts 136°
2026-05-05 11:38 48.49286 11.50268 34795 ft 433 kts 137°
2026-05-05 11:38 48.45215 11.56950 34809 ft 432 kts 137°
2026-05-05 11:39 48.41158 11.63614 34808 ft 432 kts 137°
2026-05-05 11:39 48.37106 11.70277 34794 ft 431 kts 137°
2026-05-05 11:40 48.33043 11.76918 34788 ft 432 kts 137°
2026-05-05 11:40 48.28966 11.83569 34789 ft 433 kts 137°
2026-05-05 11:41 48.24891 11.90236 34792 ft 434 kts 137°
2026-05-05 11:41 48.20806 11.96900 34796 ft 434 kts 137°
2026-05-05 11:42 48.16706 12.03540 34797 ft 434 kts 137°
2026-05-05 11:42 48.12600 12.10179 34783 ft 435 kts 136°
2026-05-05 11:43 48.08508 12.16783 34784 ft 436 kts 136°
2026-05-05 11:43 48.04376 12.23427 34788 ft 437 kts 136°
2026-05-05 11:44 48.00234 12.30074 34793 ft 437 kts 136°
2026-05-05 11:44 47.96084 12.36718 34794 ft 437 kts 137°
2026-05-05 11:45 47.91940 12.43349 34802 ft 437 kts 137°
2026-05-05 11:45 47.87787 12.49975 34805 ft 437 kts 137°
2026-05-05 11:46 47.83751 12.56378 34798 ft 437 kts 137°
2026-05-05 11:46 47.79593 12.62968 34798 ft 437 kts 137°
2026-05-05 11:47 47.75431 12.69555 34800 ft 437 kts 137°
2026-05-05 11:47 47.71263 12.76138 34792 ft 437 kts 137°
2026-05-05 11:48 47.64991 12.85841 34803 ft 435 kts 139°
2026-05-05 11:48 47.60691 12.92150 34806 ft 435 kts 139°
2026-05-05 11:49 47.56374 12.98429 34809 ft 435 kts 139°
2026-05-05 11:49 47.52078 13.04737 34797 ft 435 kts 139°
2026-05-05 11:50 47.48479 13.10034 34796 ft 436 kts 138°
2026-05-05 11:50 47.44208 13.16310 34814 ft 436 kts 139°
2026-05-05 11:51 47.39887 13.22622 34818 ft 437 kts 139°
2026-05-05 11:51 47.35554 13.28920 34849 ft 437 kts 139°
2026-05-05 11:52 47.31398 13.35479 34851 ft 440 kts 132°
2026-05-05 11:52 47.27558 13.42515 34848 ft 440 kts 132°
2026-05-05 11:53 47.23697 13.49513 34875 ft 440 kts 132°
2026-05-05 11:53 47.19831 13.56507 34879 ft 440 kts 133°
2026-05-05 11:54 47.15964 13.63493 34881 ft 440 kts 133°
2026-05-05 11:54 47.12092 13.70458 34917 ft 440 kts 133°
2026-05-05 11:55 47.08223 13.77415 34927 ft 440 kts 133°
2026-05-05 11:55 47.04356 13.84351 34948 ft 439 kts 133°
2026-05-05 11:56 47.00484 13.91272 34946 ft 438 kts 133°
2026-05-05 11:56 46.96618 13.98170 34946 ft 438 kts 133°
2026-05-05 11:57 46.92776 14.05005 34931 ft 438 kts 132°
2026-05-05 11:57 46.88904 14.11886 34937 ft 438 kts 132°
2026-05-05 11:58 46.85019 14.18769 34945 ft 439 kts 132°
2026-05-05 11:58 46.81127 14.25644 34955 ft 439 kts 132°
2026-05-05 11:59 46.77224 14.32515 34958 ft 439 kts 133°
2026-05-05 11:59 46.73318 14.39377 34951 ft 440 kts 133°
2026-05-05 12:00 46.69397 14.46247 34949 ft 442 kts 133°
2026-05-05 12:00 46.65457 14.53128 34945 ft 442 kts 133°
2026-05-05 12:01 46.61514 14.60003 34956 ft 443 kts 134°
2026-05-05 12:01 46.57566 14.66869 34971 ft 443 kts 133°
2026-05-05 12:02 46.53640 14.73683 34964 ft 442 kts 133°
2026-05-05 12:02 46.49627 14.80435 34978 ft 441 kts 136°
2026-05-05 12:03 46.45378 14.86841 34978 ft 440 kts 138°
2026-05-05 12:03 46.41050 14.93104 34980 ft 439 kts 138°
2026-05-05 12:04 46.36754 14.99409 34988 ft 440 kts 138°
2026-05-05 12:04 46.32493 15.05762 34978 ft 440 kts 137°
2026-05-05 12:05 46.28230 15.12114 34997 ft 440 kts 137°
2026-05-05 12:05 46.23953 15.18446 34997 ft 440 kts 137°
2026-05-05 12:06 46.19668 15.24764 35001 ft 441 kts 138°
2026-05-05 12:06 46.15374 15.31082 35009 ft 441 kts 137°
2026-05-05 12:07 46.11077 15.37400 35005 ft 441 kts 137°
2026-05-05 12:07 46.06800 15.43665 35016 ft 442 kts 138°
2026-05-05 12:08 46.02474 15.49971 35018 ft 443 kts 138°
2026-05-05 12:08 45.98156 15.56276 35015 ft 442 kts 137°
2026-05-05 12:09 45.93840 15.62575 35018 ft 442 kts 138°
2026-05-05 12:09 45.89514 15.68861 35018 ft 442 kts 138°
2026-05-05 12:10 45.85179 15.75133 35006 ft 443 kts 138°
2026-05-05 12:10 45.80826 15.81415 35011 ft 444 kts 138°
2026-05-05 12:11 45.76461 15.87700 35013 ft 445 kts 138°
2026-05-05 12:11 45.72095 15.93986 35034 ft 445 kts 137°
2026-05-05 12:12 45.67761 16.00214 35035 ft 444 kts 137°
2026-05-05 12:12 45.63391 16.06456 35031 ft 444 kts 137°
2026-05-05 12:13 45.59023 16.12697 35027 ft 444 kts 137°
2026-05-05 12:13 45.54650 16.18915 35020 ft 444 kts 138°
2026-05-05 12:14 45.50273 16.25139 35006 ft 445 kts 137°
2026-05-05 12:14 45.45887 16.31368 35006 ft 445 kts 138°
2026-05-05 12:15 45.41491 16.37589 35001 ft 446 kts 138°
2026-05-05 12:15 45.37089 16.43805 34999 ft 446 kts 138°
2026-05-05 12:16 45.32690 16.50008 34991 ft 445 kts 138°
2026-05-05 12:16 45.28281 16.56207 34989 ft 446 kts 138°
2026-05-05 12:17 45.23858 16.62399 34987 ft 447 kts 138°
2026-05-05 12:17 45.19431 16.68592 34989 ft 447 kts 138°
2026-05-05 12:18 45.15014 16.74719 34992 ft 447 kts 139°
2026-05-05 12:18 45.10548 16.80870 34965 ft 449 kts 138°
2026-05-05 12:19 45.06067 16.87036 34972 ft 450 kts 138°
2026-05-05 12:19 45.01566 16.93222 34972 ft 452 kts 138°
2026-05-05 12:20 44.97053 16.99408 34965 ft 452 kts 138°
2026-05-05 12:20 44.92531 17.05596 34962 ft 453 kts 139°
2026-05-05 12:21 44.88003 17.11775 34963 ft 453 kts 139°
2026-05-05 12:21 44.83466 17.17943 34967 ft 453 kts 139°
2026-05-05 12:22 44.78931 17.24104 34985 ft 453 kts 139°
2026-05-05 12:22 44.74395 17.30248 34991 ft 452 kts 139°
2026-05-05 12:23 44.69862 17.36385 34977 ft 453 kts 139°
2026-05-05 12:23 44.65309 17.42533 34984 ft 454 kts 139°
2026-05-05 12:24 44.60773 17.48632 34982 ft 455 kts 139°
2026-05-05 12:24 44.56190 17.54770 34996 ft 455 kts 139°
2026-05-05 12:25 44.51605 17.60908 34992 ft 456 kts 139°
2026-05-05 12:25 44.47012 17.67064 34993 ft 457 kts 139°
2026-05-05 12:26 44.42406 17.73211 34998 ft 458 kts 139°
2026-05-05 12:26 44.37782 17.79357 34999 ft 458 kts 139°
2026-05-05 12:27 44.33154 17.85496 35000 ft 459 kts 139°
2026-05-05 12:27 44.28517 17.91636 34992 ft 460 kts 139°
2026-05-05 12:28 44.23859 17.97790 35005 ft 461 kts 139°
2026-05-05 12:28 44.19345 18.04158 35005 ft 463 kts 133°
2026-05-05 12:29 44.15091 18.10905 35010 ft 464 kts 133°
2026-05-05 12:29 44.10825 18.17646 35004 ft 465 kts 133°
2026-05-05 12:30 44.06538 18.24386 35006 ft 465 kts 133°
2026-05-05 12:30 44.02275 18.31083 35015 ft 466 kts 133°
2026-05-05 12:31 43.97972 18.37812 35020 ft 466 kts 134°
2026-05-05 12:31 43.93665 18.44522 35026 ft 466 kts 134°
2026-05-05 12:32 43.89505 18.51416 35026 ft 466 kts 130°
2026-05-05 12:32 43.85531 18.58522 35026 ft 467 kts 129°
2026-05-05 12:33 43.81549 18.65632 35039 ft 466 kts 130°
2026-05-05 12:33 43.77511 18.72658 35027 ft 467 kts 130°
2026-05-05 12:34 43.73431 18.79665 35043 ft 468 kts 130°
2026-05-05 12:34 43.69353 18.86674 35046 ft 468 kts 130°
2026-05-05 12:35 43.65278 18.93689 35044 ft 468 kts 130°
2026-05-05 12:35 43.61196 19.00707 35028 ft 469 kts 130°
2026-05-05 12:36 43.57097 19.07725 35019 ft 470 kts 130°
2026-05-05 12:36 43.52919 19.14574 35016 ft 468 kts 138°
2026-05-05 12:37 43.47973 19.20358 35027 ft 466 kts 143°
2026-05-05 12:37 43.42952 19.26034 35022 ft 468 kts 143°